Flag for Nepal Weather past 2 weeks in Kathmandu, Nepal

Now
70 °F

Passing clouds.


Feels Like: 70 °F
Forecast: 46 / 72 °F
Wind: 3 mph from Northwest

Location: Kathmandu Airport

Current Time: Oct 23, 2014 at 11:26:41 AM

Latest Report: Oct 23, 2014 at 10:35 AM


Visibility: 4 mi

Pressure: 30.21 "Hg

Humidity: 64%

Dew point: 57 °F

Location of KathmanduLocation

Historic Weather in Kathmandu — Graph

°F

Kathmandu temperature yesterday

Maximum temperature yesterday: 75 °F (at 2:35 PM)
Minimum temperature yesterday: 52 °F (at 5:35 AM)
Average temperature yesterday: 61 °F

Past Weeks' High & Low Weather Summary

 TemperatureHumidityPressure
High81 °F (Oct 9, 12:35 PM)100% (Oct 10, 3:35 AM)30.30 "Hg (Oct 10, 3:35 AM)
Low52 °F (Oct 22, 5:35 AM)39% (Oct 12, 12:35 PM)29.95 "Hg (Oct 10, 3:35 PM)
Average66 °F81%30.11 "Hg
* Reported Oct 8 10:35 AM — Oct 23 10:35 AM, Kathmandu, Weather by CustomWeather, © 2014

Note: Actual official high and low records may vary slightly from our data, if they occured in-between our weather recording intervals... More about our weather records

Advertising

Kathmandu weather history for previous 24 hours

 ConditionsComfort  
Time TempWeatherWind HumidityBarometerVisibility
10:35 AM
Oct 23
70 °FPassing clouds.3 mph64%30.21 "Hg4 mi
9:35 AM66 °FPassing clouds.No wind73%30.24 "Hg4 mi
8:35 AM63 °FPassing clouds.No wind77%30.24 "Hg4 mi
7:35 AMN/AFog.No windN/A30.21 "Hg3 mi
6:35 AM54 °FPassing clouds.No wind94%30.18 "Hg4 mi
5:35 AM52 °FPassing clouds.No wind100%30.15 "Hg4 mi
4:35 AM54 °FPassing clouds.No wind94%30.15 "Hg4 mi
1:35 AM55 °FPassing clouds.No wind94%30.18 "Hg4 mi
12:35 AM57 °FPassing clouds.No wind94%30.18 "Hg4 mi
11:35 PM
Oct 22
57 °FPassing clouds.No wind94%30.18 "Hg4 mi
10:35 PM59 °FPassing clouds.No wind88%30.21 "Hg4 mi
9:35 PM59 °FPassing clouds.No wind88%30.18 "Hg4 mi
8:35 PM59 °FPassing clouds.No wind88%30.18 "Hg4 mi
7:35 PM63 °FPassing clouds.No wind77%30.15 "Hg4 mi
6:35 PM66 °FPassing clouds.6 mph78%30.15 "Hg5 mi
5:35 PM68 °FPassing clouds.8 mph69%30.12 "Hg5 mi
4:35 PM70 °FPassing clouds.6 mph60%30.12 "HgN/A
3:35 PM73 °FPassing clouds.7 mph53%30.12 "HgN/A
2:35 PM75 °FPassing clouds.9 mph41%30.15 "HgN/A
11:35 AM73 °FPassing clouds.No wind50%30.24 "Hg6 mi
Weather by CustomWeather, © 2014

See weather overviewHow to use our weather pages